Location: Frysztak
(49.8373°N, 21.6089°E)
Time: 14:52:15
(UTC+01:00)

ISS - Visible Passes

Search period start: 24 January 2019 00:00
Search period end: 03 February 2019 00:00
Orbit: 404 x 410 km, 51.6° (Epoch: 24 January)

Date Brightness Start Highest point End Pass type
(mag) Time Alt. Az. Time Alt. Az. Time Alt. Az.
24 Jan -2.3 17:48:58 10° SSW 17:51:39 23° SE 17:52:04 22° SE visible
24 Jan -0.4 19:24:35 10° WSW 19:24:47 11° WSW 19:24:47 11° WSW visible
25 Jan -1.6 16:58:32 10° S 17:00:30 15° SE 17:02:27 10° ESE visible
25 Jan -2.8 18:33:16 10° WSW 18:35:41 43° SW 18:35:41 43° SW visible
26 Jan -3.2 17:42:05 10° SW 17:45:13 42° SSE 17:46:30 28° E visible
26 Jan -0.8 19:18:23 10° W 19:19:14 17° W 19:19:14 17° W visible
27 Jan -2.4 16:51:04 10° SSW 16:53:57 28° SE 16:56:50 10° E visible
27 Jan -3.7 18:26:57 10° WSW 18:30:00 73° W 18:30:00 73° W visible
28 Jan -3.8 17:35:34 10° WSW 17:38:51 74° SSE 17:40:43 24° ENE visible
28 Jan -1.1 19:12:13 10° W 19:13:26 20° WNW 19:13:26 20° WNW visible
29 Jan -3.7 18:20:43 10° W 18:24:01 65° N 18:24:07 64° N visible
30 Jan -3.8 17:29:14 10° W 17:32:32 76° NNW 17:34:47 19° ENE visible
30 Jan -1.5 19:05:57 10° WNW 19:07:30 25° WNW 19:07:30 25° WNW visible
31 Jan -3.7 18:14:28 10° W 18:17:45 61° N 18:18:09 55° NE visible
01 Feb -3.6 17:22:57 10° W 17:26:14 62° N 17:28:49 15° ENE visible
01 Feb -2.0 18:59:37 10° WNW 19:01:32 32° WNW 19:01:32 32° WNW visible
02 Feb -3.8 18:08:07 10° WNW 18:11:26 69° N 18:12:12 47° ENE visible
02 Feb -0.2 19:44:44 10° W 19:44:55 11° W 19:44:55 11° W visible
